Simultaneous Nadir Overpasses (SNOs) Predictions

Prediction of SNOs between GOES-17 and METOP-B Satellite Orbit:

Table of predicted SNOs for the next 14.0 days since TLE Epoch: 12/31/2022
Index Date Time (GOES-17) GOES-17 Lat,Lon METOP-B Lat,Lon Distance(km) Time Diff (sec)
1 12/31/2022 06:41:36 -0.01,-137.33 -0.21,-138.13 91.37 80
2 01/01/2023 06:23:38 -0.01,-137.33 0.95,-133.14 477.30 80
3 01/02/2023 18:39:49 -0.00,-137.32 0.10,-137.70 42.86 80
4 01/05/2023 06:38:10 0.00,-137.30 -0.02,-137.29 2.49 80
5 01/07/2023 18:39:02 0.01,-137.27 -0.06,-136.85 46.89 80
6 01/09/2023 06:55:22 -0.02,-137.24 -0.97,-141.45 479.45 80
7 01/10/2023 06:37:23 -0.02,-137.23 0.15,-136.45 88.28 80
8 01/11/2023 18:53:34 0.03,-137.21 0.88,-141.01 433.29 80
9 01/12/2023 18:35:35 0.03,-137.19 -0.24,-136.02 134.22 80
